Flag for U.S.A. Weather past 2 weeks in Newport News, Virginia, U.S.A.

Now
77 °F

Light rain. Mostly cloudy.


Feels Like: 79 °F
Forecast: 64 / 77 °F
Wind: 3 mph from Southeast

Location: Newport News / Williamsburg International Airport

Current Time: Sep 30, 2014 at 3:55:09 PM

Latest Report: Sep 30, 2014 at 2:54 PM


Visibility: 10 mi

Pressure: 29.87 "Hg

Humidity: 60%

Dew point: 62 °F

Location of Newport NewsLocation

Historic Weather in Newport News — Graph

°F

Newport News temperature yesterday

Maximum temperature yesterday: 76 °F (at 1:54 PM)
Minimum temperature yesterday: 62 °F (at 4:54 AM)
Average temperature yesterday: 69 °F

Past Weeks' High & Low Weather Summary

 TemperatureHumidityPressure
High86 °F (Sep 21, 3:54 PM)90% (Sep 27, 6:54 AM)30.34 "Hg (Sep 27, 6:54 AM)
Low57 °F (Sep 28, 4:54 AM)38% (Sep 22, 1:54 PM)29.71 "Hg (Sep 21, 3:54 PM)
Average71 °F71%30.09 "Hg
* Reported Sep 15 2:54 PM — Sep 30 2:54 PM, Newport News, Weather by CustomWeather, © 2014

Note: Actual official high and low records may vary slightly from our data, if they occured in-between our weather recording intervals... More about our weather records

Advertising

Newport News weather history for previous 24 hours

 ConditionsComfort  
Time TempWeatherWind HumidityBarometerVisibility
2:54 PM
Sep 30
77 °FLight rain. Mostly cloudy.3 mph60%29.87 "Hg10 mi
1:54 PM75 °FScattered clouds.3 mph69%29.88 "Hg10 mi
12:54 PM77 °FBroken clouds.8 mph58%29.90 "Hg10 mi
11:54 AM77 °FScattered clouds.No wind64%29.91 "Hg10 mi
10:54 AM73 °FPartly sunny.No wind74%29.92 "Hg10 mi
9:54 AM71 °FLow clouds.No wind81%29.93 "Hg8 mi
8:54 AM68 °FFog.6 mph87%29.93 "Hg4 mi
7:54 AM65 °FPassing clouds.No wind87%29.92 "Hg7 mi
6:54 AM63 °FPassing clouds.No wind87%29.92 "Hg7 mi
5:59 AM64 °FFog.No wind87%29.91 "Hg1 mi
5:00 AM64 °FFog.No wind87%29.91 "Hg2 mi
4:01 AM63 °FFog.No wind90%29.91 "Hg0 mi
2:54 AM66 °FFog.No wind87%29.93 "Hg2 mi
1:54 AM68 °FPartly cloudy.No wind84%29.94 "Hg10 mi
12:54 AM67 °FLight rain. Passing clouds.5 mph87%29.93 "Hg7 mi
11:54 PM
Sep 29
68 °FLight rain. Overcast.3 mph84%29.96 "Hg7 mi
10:54 PM69 °FRain. Overcast.No wind84%29.96 "Hg6 mi
9:54 PM69 °FLight rain. Overcast.5 mph87%29.97 "Hg7 mi
8:54 PM69 °FLight rain. Passing clouds.No wind87%29.96 "Hg7 mi
7:54 PM70 °FPartly cloudy.No wind84%29.95 "Hg10 mi
6:54 PM71 °FLight rain. Overcast.No wind81%29.96 "Hg8 mi
5:54 PM72 °FLight rain. Partly sunny.6 mph76%29.96 "Hg10 mi
4:54 PM74 °FPartly sunny.5 mph69%29.96 "Hg10 mi
3:54 PM75 °FPassing clouds.3 mph66%29.96 "Hg10 mi
Weather by CustomWeather, © 2014

See weather overviewHow to use our weather pages